{"data":{"norad_id":57137,"intl_designator":"2023-090AN","name":"STARLINK-5347","alt_names":[],"object_type":"PAYLOAD","status":"ACTIVE","operator":null,"country":"US","launch_date":"2023-06-23","launch_site_code":"AFETR","launch_vehicle":null,"mission":null,"orbit_class":"UNKNOWN","rcs_meters":null,"size_class":null,"mass_kg":null,"dimensions":null,"purposes":["comms"],"wikipedia_slug":null,"has_3d_model":false,"image_url":null,"decayed_at":null,"tle_current":{"epoch":"2026-05-25T04:00:52.774272Z","epoch_age_seconds":56777,"freshness":"FRESH","line1":"1 57137U 23090AN  26145.16727748  .00000191  00000+0  16455-4 0  9992","line2":"2 57137  43.0030 191.0992 0001007 280.7227  79.3511 15.27576001162056","mean_motion":15.27576001,"eccentricity":0.0001007,"inclination_deg":43.003,"raan_deg":191.0992,"arg_perigee_deg":280.7227,"mean_anomaly_deg":79.3511,"bstar":1.6455e-5,"rev_number":16205,"period_min":94.26699549203,"perigee_km":482.37014786471,"apogee_km":483.75199315611,"semimajor_km":6861.1980705104,"source":"CELESTRAK","updated_at":"2026-05-25T13:38:18.246962Z"}}}